When you browse on this site, cookies collect data to enhance your experience and personalize the content and advertising you see.
Visit our Privacy Policy to learn more. By continuing to use the site, you agree to this use of cookies and data.
  • en Suisse
  • Liste des pays
  • À 7 jours
  • Température de l'eau
  • Carte satellitaire
  • Carte météo
  • Widgets météo
  • user-avatar
    Se connecter

    Météo par heure à Ali Bayramli

    Ce jour, 25 Avril, Jeudi

    Heure Température Précipitation Vent Pression Humidité
    00:00 +10°C° 0 mm 2 m/s 767 mmHg 55%
    01:00 +10°C° 0 mm 2 m/s 767 mmHg 58%
    02:00 +10°C° 0 mm 2 m/s 767 mmHg 62%
    03:00 +10°C° 0 mm 1 m/s 767 mmHg 66%
    04:00 +11°C° 0 mm 1 m/s 767 mmHg 66%
    05:00 +11°C° 0 mm 1 m/s 767 mmHg 65%
    06:00 +12°C° 0 mm 1 m/s 768 mmHg 65%
    07:00 +13°C° 0 mm 1 m/s 768 mmHg 57%
    08:00 +15°C° 0 mm 1 m/s 768 mmHg 49%
    09:00 +18°C° 0 mm 1 m/s 768 mmHg 41%
    10:00 +19°C° 0 mm 1 m/s 768 mmHg 37%
    11:00 +20°C° 0 mm 1 m/s 768 mmHg 34%
    12:00 +20°C° 0 mm 2 m/s 768 mmHg 30%
    13:00 +21°C° 0 mm 2 m/s 768 mmHg 30%
    14:00 +21°C° 0 mm 2 m/s 767 mmHg 29%
    15:00 +21°C° 0 mm 3 m/s 767 mmHg 28%
    16:00 +20°C° 0 mm 4 m/s 767 mmHg 33%
    17:00 +19°C° 0 mm 5 m/s 768 mmHg 37%
    18:00 +17°C° 0 mm 5 m/s 768 mmHg 41%
    19:00 +15°C° 0 mm 4 m/s 768 mmHg 44%
    20:00 +14°C° 0 mm 3 m/s 768 mmHg 47%
    21:00 +14°C° 0 mm 2 m/s 768 mmHg 49%
    22:00 +13°C° 0 mm 2 m/s 768 mmHg 51%
    23:00 +13°C° 0 mm 2 m/s 768 mmHg 53%

    Demain, 26 Avril, Vendredi

    Heure Température Précipitation Vent Pression Humidité
    00:00 +12°C° 0 mm 1 m/s 768 mmHg 55%
    01:00 +12°C° 0 mm 1 m/s 768 mmHg 56%
    02:00 +11°C° 0 mm 1 m/s 768 mmHg 57%
    03:00 +11°C° 0 mm 1 m/s 767 mmHg 58%
    04:00 +11°C° 0 mm 1 m/s 767 mmHg 56%
    05:00 +12°C° 0 mm 1 m/s 767 mmHg 55%
    06:00 +12°C° 0 mm 1 m/s 767 mmHg 53%
    07:00 +14°C° 0 mm 1 m/s 767 mmHg 47%
    08:00 +16°C° 0 mm 1 m/s 767 mmHg 41%
    09:00 +18°C° 0 mm 1 m/s 767 mmHg 35%
    10:00 +19°C° 0 mm 1 m/s 767 mmHg 32%
    11:00 +20°C° 0 mm 2 m/s 767 mmHg 30%
    12:00 +21°C° 0 mm 2 m/s 767 mmHg 28%
    13:00 +21°C° 0 mm 3 m/s 766 mmHg 27%
    14:00 +22°C° 0 mm 4 m/s 766 mmHg 27%
    15:00 +22°C° 0 mm 5 m/s 766 mmHg 27%
    16:00 +20°C° 0 mm 5 m/s 765 mmHg 29%
    17:00 +19°C° 0 mm 6 m/s 765 mmHg 30%
    18:00 +16°C° 0 mm 6 m/s 765 mmHg 32%
    19:00 +15°C° 0 mm 5 m/s 765 mmHg 37%
    20:00 +14°C° 0 mm 5 m/s 766 mmHg 42%
    21:00 +13°C° 0 mm 4 m/s 766 mmHg 47%
    22:00 +12°C° 0 mm 3 m/s 766 mmHg 53%
    23:00 +12°C° 0 mm 3 m/s 766 mmHg 60%

    Après-demain, 27 Avril, Samedi

    Heure Température Précipitation Vent Pression Humidité
    00:00 +12°C° 0 mm 2 m/s 766 mmHg 66%
    01:00 +12°C° 0 mm 2 m/s 765 mmHg 69%
    02:00 +12°C° 0 mm 2 m/s 765 mmHg 73%
    03:00 +10°C° 0 mm 2 m/s 765 mmHg 76%
    04:00 +10°C° 0 mm 2 m/s 765 mmHg 75%
    05:00 +12°C° 0 mm 2 m/s 765 mmHg 75%
    06:00 +12°C° 0 mm 2 m/s 765 mmHg 74%
    07:00 +13°C° 0 mm 3 m/s 765 mmHg 65%
    08:00 +16°C° 0 mm 3 m/s 765 mmHg 55%
    09:00 +18°C° 0 mm 4 m/s 765 mmHg 46%
    10:00 +19°C° 0 mm 4 m/s 765 mmHg 42%
    11:00 +20°C° 0 mm 5 m/s 765 mmHg 38%
    12:00 +21°C° 0 mm 5 m/s 764 mmHg 33%
    13:00 +21°C° 0 mm 5 m/s 764 mmHg 33%
    14:00 +21°C° 0 mm 6 m/s 763 mmHg 33%
    15:00 +21°C° 0 mm 7 m/s 763 mmHg 33%
    16:00 +20°C° 0 mm 6 m/s 763 mmHg 36%
    17:00 +17°C° 0 mm 6 m/s 763 mmHg 40%
    18:00 +16°C° 0 mm 6 m/s 762 mmHg 43%
    19:00 +15°C° 0 mm 5 m/s 763 mmHg 49%
    20:00 +14°C° 0 mm 3 m/s 763 mmHg 55%
    21:00 +14°C° 0 mm 2 m/s 763 mmHg 61%
    22:00 +13°C° 0 mm 2 m/s 763 mmHg 64%
    23:00 +13°C° 0 mm 2 m/s 762 mmHg 66%

    28 Avril, Dimanche

    Heure Température Précipitation Vent Pression Humidité
    00:00 +13°C° 0 mm 1 m/s 762 mmHg 69%
    01:00 +12°C° 0 mm 1 m/s 762 mmHg 70%
    02:00 +12°C° 0 mm 1 m/s 761 mmHg 72%
    03:00 +12°C° 0 mm 1 m/s 761 mmHg 73%
    04:00 +12°C° 0 mm 1 m/s 761 mmHg 72%
    05:00 +13°C° 0 mm 1 m/s 760 mmHg 71%
    06:00 +13°C° 0 mm 1 m/s 760 mmHg 69%
    07:00 +15°C° 0 mm 2 m/s 760 mmHg 63%
    08:00 +16°C° 0 mm 2 m/s 760 mmHg 56%
    09:00 +18°C° 0 mm 3 m/s 760 mmHg 49%
    10:00 +19°C° 0 mm 3 m/s 759 mmHg 43%
    11:00 +21°C° 0 mm 3 m/s 759 mmHg 38%
    12:00 +24°C° 0 mm 3 m/s 758 mmHg 33%
    13:00 +24°C° 0 mm 3 m/s 758 mmHg 32%
    14:00 +25°C° 0 mm 3 m/s 758 mmHg 30%
    15:00 +26°C° 0 mm 3 m/s 757 mmHg 29%
    16:00 +25°C° 0 mm 3 m/s 757 mmHg 34%
    17:00 +23°C° 0 mm 4 m/s 757 mmHg 38%
    18:00 +22°C° 0 mm 5 m/s 757 mmHg 43%
    19:00 +20°C° 0 mm 4 m/s 757 mmHg 46%
    20:00 +18°C° 0 mm 3 m/s 758 mmHg 49%
    21:00 +17°C° 0 mm 3 m/s 758 mmHg 52%
    22:00 +16°C° 0 mm 2 m/s 758 mmHg 54%
    23:00 +16°C° 0 mm 1 m/s 757 mmHg 56%

    29 Avril, Lundi

    Heure Température Précipitation Vent Pression Humidité
    00:00 +15°C° 0 mm 1 m/s 757 mmHg 58%
    01:00 +15°C° 0 mm 1 m/s 757 mmHg 60%
    02:00 +15°C° 0 mm 1 m/s 757 mmHg 61%
    03:00 +14°C° 0 mm 1 m/s 757 mmHg 63%
    04:00 +15°C° 0 mm 1 m/s 757 mmHg 63%
    05:00 +16°C° 0 mm 2 m/s 757 mmHg 64%
    06:00 +16°C° 0 mm 3 m/s 757 mmHg 65%
    07:00 +18°C° 0 mm 3 m/s 758 mmHg 54%
    08:00 +20°C° 0 mm 3 m/s 758 mmHg 44%
    09:00 +22°C° 0 mm 4 m/s 758 mmHg 34%
    10:00 +25°C° 0 mm 3 m/s 758 mmHg 31%
    11:00 +26°C° 0 mm 3 m/s 758 mmHg 27%
    12:00 +27°C° 0 mm 2 m/s 757 mmHg 24%
    13:00 +28°C° 0 mm 2 m/s 757 mmHg 24%
    14:00 +28°C° 0 mm 2 m/s 757 mmHg 24%
    15:00 +28°C° 0 mm 3 m/s 756 mmHg 25%
    16:00 +26°C° 0 mm 4 m/s 757 mmHg 31%
    17:00 +23°C° 0 mm 5 m/s 757 mmHg 37%
    18:00 +21°C° 0 mm 6 m/s 757 mmHg 42%
    19:00 +21°C° 0 mm 5 m/s 757 mmHg 44%
    20:00 +20°C° 0 mm 4 m/s 757 mmHg 46%
    21:00 +19°C° 0 mm 3 m/s 758 mmHg 47%
    22:00 +19°C° 0 mm 2 m/s 758 mmHg 49%
    23:00 +19°C° 0 mm 2 m/s 758 mmHg 50%

    30 Avril, Mardi

    Heure Température Précipitation Vent Pression Humidité
    00:00 +19°C° 0 mm 1 m/s 758 mmHg 51%
    01:00 +19°C° 0 mm 1 m/s 758 mmHg 53%
    02:00 +18°C° 0 mm 1 m/s 758 mmHg 55%
    03:00 +16°C° 0 mm 0 m/s 758 mmHg 57%
    04:00 +18°C° 0 mm 1 m/s 758 mmHg 56%
    05:00 +19°C° 0 mm 1 m/s 758 mmHg 55%
    06:00 +18°C° 0 mm 2 m/s 759 mmHg 54%
    07:00 +19°C° 0 mm 2 m/s 759 mmHg 51%
    08:00 +21°C° 0 mm 2 m/s 759 mmHg 47%
    09:00 +23°C° 0 mm 2 m/s 759 mmHg 44%
    10:00 +25°C° 0 mm 2 m/s 759 mmHg 41%
    11:00 +26°C° 0 mm 2 m/s 759 mmHg 38%
    12:00 +27°C° 0 mm 2 m/s 759 mmHg 35%
    13:00 +27°C° 0 mm 3 m/s 758 mmHg 34%
    14:00 +28°C° 0 mm 3 m/s 758 mmHg 32%
    15:00 +28°C° 0 mm 3 m/s 758 mmHg 30%
    16:00 +26°C° 0 mm 4 m/s 758 mmHg 34%
    17:00 +23°C° 0 mm 5 m/s 758 mmHg 38%
    18:00 +21°C° 0 mm 6 m/s 758 mmHg 42%
    19:00 +20°C° 0 mm 5 m/s 759 mmHg 45%
    20:00 +19°C° 0 mm 5 m/s 759 mmHg 47%
    21:00 +18°C° 0 mm 4 m/s 759 mmHg 50%
    22:00 +18°C° 0 mm 4 m/s 759 mmHg 52%
    23:00 +17°C° 0 mm 3 m/s 759 mmHg 54%
    Voir plus